EW4096 Weather Reports


time (UTC)temp
C
wind
direction
speed
KPH
gust
KPH
rain 1hr
cm
rain 24hr
cm
rain mn
cm
humidity
%
barometer
mb
20260506044701 20 229 0.0 0.0 0.00 0.00 0.00 54 1008.6
20260506044202 20 226 0.0 0.0 0.00 0.00 0.00 54 1008.6
20260506043701 20 243 0.0 0.0 0.00 0.00 0.00 53 1008.6
20260506043200 20 244 0.0 0.0 0.00 0.00 0.00 52 1008.5
20260506042658 20 244 0.0 0.0 0.00 0.00 0.00 52 1008.6
20260506042157 20 109 0.0 0.0 0.00 0.00 0.00 52 1008.5
20260506041657 20 182 0.0 0.0 0.00 0.00 0.00 52 1008.5
20260506041158 20 210 0.0 0.0 0.00 0.00 0.00 51 1008.6
20260506040655 20 217 0.0 0.0 0.00 0.00 0.00 51 1008.5
20260506040155 20 216 0.0 0.0 0.00 0.00 0.00 50 1008.5
20260506035656 20 316 0.0 0.0 0.00 0.00 0.00 50 1008.4
20260506035155 20 316 0.0 0.0 0.00 0.00 0.00 49 1008.5
20260506034700 20 173 0.0 0.0 0.00 0.00 0.00 50 1008.4
20260506034656 20 254 0.0 0.0 0.00 0.00 0.00 50 1008.4
20260506033655 20 173 0.0 0.0 0.00 0.00 0.00 49 1008.4
20260506033156 20 180 0.0 0.0 0.00 0.00 0.00 49 1008.4
20260506032655 20 180 0.0 0.0 0.00 0.00 0.00 49 1008.3
20260506032155 20 237 0.0 0.0 0.00 0.00 0.00 48 1008.3
20260506031656 20 234 0.0 0.0 0.00 0.00 0.00 48 1008.3
20260506031155 20 235 0.0 0.0 0.00 0.00 0.00 48 1008.3
20260506030654 20 237 0.0 0.0 0.00 0.00 0.00 47 1008.3
20260506030154 20 229 0.0 0.0 0.00 0.00 0.00 47 1008.3
20260506025651 20 229 0.0 0.0 0.00 0.00 0.00 47 1008.3
20260506025151 20 229 0.0 0.0 0.00 0.00 0.00 46 1008.4
20260506024651 20 232 0.0 0.0 0.00 0.00 0.00 46 1008.4
20260506024157 21 238 0.0 0.0 0.00 0.00 0.00 44 1008.3
20260506024151 20 232 0.0 0.0 0.00 0.00 0.00 45 1008.4
20260506023651 21 237 0.0 0.0 0.00 0.00 0.00 45 1008.4
20260506022655 21 240 0.0 0.0 0.00 0.00 0.00 44 1008.3
20260506022651 21 239 0.0 0.0 0.00 0.00 0.00 44 1008.3
20260506021649 21 240 0.0 0.0 0.00 0.00 0.00 43 1008.3
20260506021149 21 240 0.0 0.0 0.00 0.00 0.00 42 1008.4
20260506020650 21 206 0.0 0.0 0.00 0.00 0.00 42 1008.4
20260506020148 21 206 0.0 0.0 0.00 0.00 0.00 41 1008.4
20260506015647 21 205 0.0 0.0 0.00 0.00 0.00 41 1008.3
20260506015153 22 205 0.0 0.0 0.00 0.00 0.00 40 1008.2
20260506014647 22 205 0.0 0.0 0.00 0.00 0.00 39 1008.1
20260506014147 22 205 0.0 0.0 0.00 0.00 0.00 39 1008.2
20260506013652 22 205 0.0 0.0 0.00 0.00 0.00 37 1008.0
20260506013648 22 205 0.0 0.0 0.00 0.00 0.00 39 1008.1
20260506012651 22 183 0.0 0.0 0.00 0.00 0.00 37 1007.9
20260506012647 22 205 0.0 0.0 0.00 0.00 0.00 37 1008.0
20260506012251 23 194 0.0 0.0 0.00 0.00 0.00 36 1007.8
20260506011751 23 161 0.0 0.0 0.00 0.00 0.00 36 1007.8
20260506010651 23 205 0.0 0.0 0.00 0.00 0.00 35 1007.8
20260506010647 23 184 0.0 0.0 0.00 0.00 0.00 35 1007.8
20260506005647 23 215 0.0 0.0 0.00 0.00 0.00 35 1007.7
20260506005147 23 226 0.0 0.0 0.00 0.00 0.00 36 1007.7
20260506004647 23 220 0.0 0.0 0.00 0.00 0.00 35 1007.6
20260506004147 23 182 0.0 0.0 0.00 0.00 0.00 35 1007.6
20260506003653 23 198 0.0 0.0 0.00 0.00 0.00 36 1007.4
20260506003647 23 245 0.0 0.0 0.00 0.00 0.00 36 1007.5
20260506003147 23 198 0.0 0.0 0.00 0.00 0.00 36 1007.5
20260506002145 23 241 0.0 0.0 0.00 0.00 0.00 35 1007.4
20260506001645 23 195 0.0 0.0 0.00 0.00 0.00 35 1007.2
20260506001145 23 190 0.0 0.0 0.00 0.00 0.00 36 1007.2
20260506000645 23 188 0.0 0.0 0.00 0.00 0.00 36 1007.2
20260506000145 23 169 0.0 0.0 0.00 0.00 0.00 37 1007.2
20260505235645 24 172 0.0 0.0 0.00 0.00 0.00 36 1007.1
20260505235150 25 115 0.0 0.0 0.00 0.00 0.00 35 1007.1
20260505235145 24 111 0.0 0.0 0.00 0.00 0.00 36 1007.1
20260505234645 24 163 0.0 0.0 0.00 0.00 0.00 37 1007.1
20260505233644 25 182 0.0 0.0 0.00 0.00 0.00 35 1007.1
20260505233147 25 216 0.0 14.5 0.00 0.00 0.00 36 1007.1
20260505233143 25 138 0.0 0.0 0.00 0.00 0.00 35 1007.1
20260505232143 25 190 0.0 14.5 0.00 0.00 0.00 35 1007.1
20260505231652 25 130 0.0 0.0 0.00 0.00 0.00 35 1006.9
20260505231648 25 157 0.0 1.6 0.00 0.00 0.00 34 1007.0
20260505230643 25 160 0.0 0.0 0.00 0.00 0.00 35 1007.0
20260505230143 26 136 0.0 0.0 0.00 0.00 0.00 34 1006.9
20260505225643 26 261 0.0 0.0 0.00 0.00 0.00 34 1007.0
20260505225143 26 207 0.0 0.0 0.00 0.00 0.00 36 1006.9
20260505224642 26 172 0.0 1.6 0.00 0.00 0.00 35 1006.9
20260505224145 25 136 0.0 0.0 0.00 0.00 0.00 36 1006.9
20260505224141 26 108 0.0 1.6 0.00 0.00 0.00 37 1006.9
20260505223141 25 190 0.0 0.0 0.00 0.00 0.00 35 1006.9
20260505222641 25 131 0.0 0.0 0.00 0.00 0.00 35 1007.1
20260505222145 26 135 0.0 0.0 0.00 0.00 0.00 35 1007.0
20260505222140 26 81 0.0 0.0 0.00 0.00 0.00 35 1007.1
20260505221141 26 323 0.0 0.0 0.00 0.00 0.00 36 1007.1
20260505220640 26 197 0.0 0.0 0.00 0.00 0.00 35 1007.2
20260505220145 26 246 0.0 0.0 0.00 0.00 0.00 36 1007.1
20260505220141 26 126 0.0 1.6 0.00 0.00 0.00 36 1007.1
20260505215640 26 183 0.0 1.6 0.00 0.00 0.00 37 1007.1
20260505214641 26 71 0.0 0.0 0.00 0.00 0.00 35 1007.0
20260505214138 26 286 0.0 0.0 0.00 0.00 0.00 35 1007.1
20260505213639 26 113 0.0 0.0 0.00 0.00 0.00 34 1007.0
20260505213139 26 86 0.0 0.0 0.00 0.00 0.00 34 1007.0
20260505212639 26 190 0.0 0.0 0.00 0.00 0.00 35 1007.0
20260505212143 27 327 0.0 1.6 0.00 0.00 0.00 35 1006.9
20260505212139 26 190 0.0 1.6 0.00 0.00 0.00 34 1006.9
20260505211137 27 143 0.0 1.6 0.00 0.00 0.00 36 1006.9
20260505210637 27 91 0.0 12.9 0.00 0.00 0.00 35 1006.8
20260505210142 27 154 1.6 11.3 0.00 0.00 0.00 34 1006.8
20260505210138 27 146 1.6 12.9 0.00 0.00 0.00 35 1006.7
20260505205136 27 227 0.0 9.7 0.00 0.00 0.00 36 1006.7
20260505204637 27 130 0.0 0.0 0.00 0.00 0.00 35 1006.8
20260505204135 27 109 0.0 0.0 0.00 0.00 0.00 36 1006.8
20260505203634 27 221 0.0 0.0 0.00 0.00 0.00 35 1006.8
20260505203135 28 173 0.0 0.0 0.00 0.00 0.00 36 1006.7
20260505202635 28 190 0.0 0.0 0.00 0.00 0.00 37 1006.7
20260505202132 27 146 0.0 0.0 0.00 0.00 0.00 35 1006.7
20260505201633 27 132 0.0 4.8 0.00 0.00 0.00 36 1006.6
20260505201137 28 279 0.0 16.1 0.00 0.00 0.00 36 1006.8
20260505201132 28 126 0.0 4.8 0.00 0.00 0.00 34 1006.7
20260505200131 28 240 0.0 16.1 0.00 0.00 0.00 36 1006.7
20260505195630 28 161 0.0 4.8 0.00 0.00 0.00 39 1006.8
20260505195131 28 225 0.0 4.8 0.00 0.00 0.00 39 1006.9
20260505194636 28 145 0.0 8.0 0.00 0.00 0.00 40 1007.1
20260505194631 28 134 0.0 3.2 0.00 0.00 0.00 37 1006.9
20260505194130 28 154 0.0 8.0 0.00 0.00 0.00 42 1007.0
20260505193134 28 119 0.0 1.6 0.00 0.00 0.00 38 1007.3
20260505193130 28 243 0.0 6.4 0.00 0.00 0.00 40 1007.2
20260505192134 27 106 0.0 14.5 0.00 0.00 0.00 39 1007.4
20260505192130 28 14 0.0 14.5 0.00 0.00 0.00 40 1007.3
20260505191131 27 123 0.0 1.6 0.00 0.00 0.00 39 1007.5
20260505190631 27 133 0.0 0.0 0.00 0.00 0.00 39 1007.6
20260505190130 27 109 0.0 0.0 0.00 0.00 0.00 40 1007.6
20260505185635 27 128 0.0 0.0 0.00 0.00 0.00 37 1007.9
20260505185630 27 142 0.0 0.0 0.00 0.00 0.00 39 1007.8
20260505184636 27 144 0.0 0.0 0.00 0.00 0.00 40 1007.9
20260505184131 27 138 0.0 12.9 0.00 0.00 0.00 39 1007.9
20260505183630 27 253 0.0 12.9 0.00 0.00 0.00 39 1008.0
20260505183130 27 171 0.0 6.4 0.00 0.00 0.00 43 1008.1
20260505182631 27 329 0.0 6.4 0.00 0.00 0.00 39 1008.2
20260505182130 27 178 0.0 1.6 0.00 0.00 0.00 40 1008.0
20260505181635 27 142 0.0 0.0 0.00 0.00 0.00 38 1008.3
20260505181631 26 163 0.0 0.0 0.00 0.00 0.00 39 1008.2
20260505180626 27 136 0.0 0.0 0.00 0.00 0.00 41 1008.3
20260505180127 27 109 0.0 0.0 0.00 0.00 0.00 39 1008.4
20260505175624 27 159 0.0 6.4 0.00 0.00 0.00 41 1008.4
20260505175124 27 123 0.0 6.4 0.00 0.00 0.00 41 1008.5
20260505174625 27 260 0.0 1.6 0.00 0.00 0.00 43 1008.6
20260505174124 26 213 0.0 1.6 0.00 0.00 0.00 40 1008.6
20260505173624 26 148 0.0 6.4 0.00 0.00 0.00 42 1008.7
20260505173125 26 228 0.0 6.4 0.00 0.00 0.00 40 1008.6
20260505172624 26 171 0.0 0.0 0.00 0.00 0.00 42 1008.6
20260505172124 26 226 0.0 0.0 0.00 0.00 0.00 40 1008.7
20260505171625 26 143 0.0 0.0 0.00 0.00 0.00 40 1008.8
20260505171125 26 145 0.0 4.8 0.00 0.00 0.00 42 1008.8
20260505170628 26 254 0.0 4.8 0.00 0.00 0.00 40 1008.9
20260505170624 26 254 0.0 4.8 0.00 0.00 0.00 43 1008.8
20260505170229 26 215 0.0 4.8 0.00 0.00 0.00 46 1009.0
20260505165122 26 281 0.0 0.0 0.00 0.00 0.00 44 1009.0
20260505164621 26 40 0.0 0.0 0.00 0.00 0.00 44 1009.3
20260505164120 26 138 0.0 0.0 0.00 0.00 0.00 43 1009.2
20260505163621 26 103 0.0 1.6 0.00 0.00 0.00 41 1009.4
20260505163120 26 294 0.0 1.6 0.00 0.00 0.00 42 1009.4
20260505162620 26 243 0.0 0.0 0.00 0.00 0.00 42 1009.5
20260505162120 26 265 0.0 0.0 0.00 0.00 0.00 44 1009.5
20260505161624 26 215 0.0 3.2 0.00 0.00 0.00 41 1009.7
20260505161620 26 252 0.0 3.2 0.00 0.00 0.00 42 1009.7
20260505160621 26 67 0.0 1.6 0.00 0.00 0.00 41 1009.8
20260505160120 26 165 0.0 1.6 0.00 0.00 0.00 43 1009.8
20260505153118 25 247 0.0 3.2 0.00 0.00 0.00 44 1009.9
20260505152618 25 107 0.0 3.2 0.00 0.00 0.00 46 1009.9
20260505152118 25 177 0.0 6.4 0.00 0.00 0.00 45 1009.9
20260505151618 25 260 0.0 6.4 0.00 0.00 0.00 48 1009.9
20260505151118 25 118 0.0 0.0 0.00 0.00 0.00 47 1009.7
20260505150621 25 5 0.0 0.0 0.00 0.00 0.00 45 1009.8
20260505150616 25 254 0.0 0.0 0.00 0.00 0.00 46 1009.8
20260505150220 24 136 0.0 0.0 0.00 0.00 0.00 50 1009.6
20260505140614 21 132 0.0 0.0 0.00 0.00 0.00 60 1010.1
20260505140119 20 200 0.0 0.0 0.00 0.00 0.00 65 1010.2
20260505140113 21 150 0.0 0.0 0.00 0.00 0.00 61 1010.1
20260505130108 18 197 0.0 0.0 0.00 0.00 0.00 70 1010.6
20260505124606 17 223 0.0 0.0 0.00 0.00 0.00 70 1010.8
20260505124103 17 248 0.0 0.0 0.00 0.00 0.00 72 1010.8
20260505123603 17 254 0.0 0.0 0.00 0.00 0.00 71 1010.9
20260505123106 16 213 0.0 1.6 0.00 0.00 0.00 71 1010.8
20260505123102 16 254 0.0 0.0 0.00 0.00 0.00 70 1010.8
20260505122102 16 236 0.0 1.6 0.00 0.00 0.00 72 1010.8
20260505121602 16 189 0.0 1.6 0.00 0.00 0.00 73 1010.9
20260505121101 15 215 0.0 0.0 0.00 0.00 0.00 75 1010.8
20260505120606 14 267 0.0 0.0 0.00 0.00 0.00 79 1010.9
20260505120602 15 203 0.0 0.0 0.00 0.00 0.00 77 1010.9
20260505115601 14 134 0.0 0.0 0.00 0.00 0.00 80 1010.8
20260505115106 13 135 0.0 0.0 0.00 0.00 0.00 81 1010.8
20260505115102 13 134 0.0 0.0 0.00 0.00 0.00 81 1010.8
20260505114101 13 135 0.0 0.0 0.00 0.00 0.00 81 1010.7
20260505113602 13 130 0.0 0.0 0.00 0.00 0.00 81 1010.6
20260505113101 13 130 0.0 0.0 0.00 0.00 0.00 81 1010.6
20260505112601 13 145 0.0 0.0 0.00 0.00 0.00 81 1010.5
20260505112102 13 122 0.0 0.0 0.00 0.00 0.00 81 1010.5
20260505111605 13 109 0.0 0.0 0.00 0.00 0.00 81 1010.3
20260505111601 13 109 0.0 0.0 0.00 0.00 0.00 81 1010.5
20260505110601 13 109 0.0 0.0 0.00 0.00 0.00 81 1010.3
20260505101600 13 225 0.0 0.0 0.00 0.00 0.00 80 1009.7
20260505101103 13 225 0.0 0.0 0.00 0.00 0.00 80 1009.6
20260505101100 13 225 0.0 0.0 0.00 0.00 0.00 80 1009.7
20260505100100 13 225 0.0 0.0 0.00 0.00 0.00 79 1009.6
20260505095559 13 225 0.0 0.0 0.00 0.00 0.00 79 1009.6
20260505095109 13 225 0.0 0.0 0.00 0.00 0.00 78 1009.7
20260505095105 13 225 0.0 0.0 0.00 0.00 0.00 79 1009.6
20260505094103 13 225 0.0 0.0 0.00 0.00 0.00 77 1009.6
20260505094059 13 225 0.0 0.0 0.00 0.00 0.00 78 1009.6
20260505093104 13 225 0.0 0.0 0.00 0.00 0.00 77 1009.4
20260505092559 13 237 0.0 0.0 0.00 0.00 0.00 77 1009.5
20260505092100 13 236 0.0 0.0 0.00 0.00 0.00 76 1009.4
20260505091557 13 236 0.0 0.0 0.00 0.00 0.00 76 1009.5
20260505091101 14 236 0.0 0.0 0.00 0.00 0.00 75 1009.6
20260505091057 14 236 0.0 0.0 0.00 0.00 0.00 75 1009.5
20260505090100 14 237 0.0 0.0 0.00 0.00 0.00 74 1009.6
20260505090056 14 236 0.0 0.0 0.00 0.00 0.00 74 1009.6
20260505085055 15 237 0.0 0.0 0.00 0.00 0.00 73 1009.4
20260505084553 15 236 0.0 0.0 0.00 0.00 0.00 73 1009.5
20260505084052 15 236 0.0 0.0 0.00 0.00 0.00 72 1009.3
20260505083551 15 236 0.0 0.0 0.00 0.00 0.00 72 1009.3
20260505083055 15 238 0.0 0.0 0.00 0.00 0.00 71 1009.1
20260505083051 15 236 0.0 0.0 0.00 0.00 0.00 71 1009.3
20260505082655 15 237 0.0 0.0 0.00 0.00 0.00 72 1009.0
20260505082155 15 252 0.0 0.0 0.00 0.00 0.00 73 1009.1
20260505081051 15 273 0.0 0.0 0.00 0.00 0.00 74 1009.0
20260505080551 14 283 0.0 0.0 0.00 0.00 0.00 74 1009.1
20260505080049 14 256 0.0 0.0 0.00 0.00 0.00 76 1009.1
20260505075558 13 245 0.0 0.0 0.00 0.00 0.00 77 1009.1
20260505075549 13 225 0.0 0.0 0.00 0.00 0.00 76 1009.1
20260505074553 13 219 0.0 0.0 0.00 0.00 0.00 76 1009.1
20260505074549 13 219 0.0 0.0 0.00 0.00 0.00 76 1009.0
20260505073549 14 219 0.0 0.0 0.00 0.00 0.00 76 1009.0
20260505073049 14 219 0.0 0.0 0.00 0.00 0.00 75 1009.1
20260505072553 14 221 0.0 0.0 0.00 0.00 0.00 75 1009.0
20260505072548 14 221 0.0 0.0 0.00 0.00 0.00 75 1009.0
20260505071553 14 221 0.0 0.0 0.00 0.00 0.00 74 1008.9
20260505071549 14 221 0.0 0.0 0.00 0.00 0.00 74 1009.0
20260505070547 14 221 0.0 0.0 0.00 0.00 0.00 74 1008.9
20260505070047 14 221 0.0 0.0 0.00 0.00 0.00 74 1008.9
20260505065547 14 222 0.0 0.0 0.00 0.00 0.00 74 1008.9
20260505065047 14 222 0.0 0.0 0.00 0.00 0.00 74 1009.0
20260505064547 15 222 0.0 0.0 0.00 0.00 0.00 73 1008.9
20260505064052 15 222 0.0 0.0 0.00 0.00 0.00 73 1008.9
20260505063547 14 223 0.0 0.0 0.00 0.00 0.00 73 1009.0
20260505063047 14 222 0.0 0.0 0.00 0.00 0.00 73 1009.0
20260505062546 14 222 0.0 0.0 0.00 0.00 0.00 74 1009.0
20260505062045 14 222 0.0 0.0 0.00 0.00 0.00 74 1009.1
20260505061544 14 223 0.0 0.0 0.00 0.00 0.00 74 1009.1
20260505061045 14 222 0.0 0.0 0.00 0.00 0.00 74 1009.2
20260505060543 14 223 0.0 0.0 0.00 0.00 0.00 74 1009.2
20260505060042 14 222 0.0 0.0 0.00 0.00 0.00 73 1009.1
20260505055543 14 222 0.0 0.0 0.00 0.00 0.00 73 1009.0
20260505055043 15 222 0.0 0.0 0.00 0.00 0.00 72 1009.0
20260505054542 15 222 0.0 0.0 0.00 0.00 0.00 71 1009.0
20260505054043 15 222 0.0 0.0 0.00 0.00 0.00 71 1009.1
20260505053543 15 251 0.0 0.0 0.00 0.00 0.00 70 1009.0
20260505053040 15 251 0.0 0.0 0.00 0.00 0.00 69 1008.8
20260505052541 16 251 0.0 0.0 0.00 0.00 0.00 68 1008.9
20260505052041 16 251 0.0 0.0 0.00 0.00 0.00 67 1009.0
20260505051540 16 251 0.0 0.0 0.00 0.00 0.00 66 1009.0
20260505051041 16 251 0.0 0.0 0.00 0.00 0.00 65 1009.1
20260505050545 17 251 0.0 0.0 0.00 0.00 0.00 63 1009.2
20260505050540 16 251 0.0 0.0 0.00 0.00 0.00 64 1009.2